Flag for Norway Weather past 2 weeks in Brønnøysund, Norway

Now
64 °F

Passing clouds.


Feels Like: 64 °F
Forecast: 59 / 65 °F
Wind: 8 mph from Northwest

Location: Bronnoysund / Bronnoy

Current Time: Jul 29, 2014 at 1:23:15 PM

Latest Report: Jul 29, 2014 at 12:50 PM


Visibility: N/A

Pressure: 29.89 "Hg

Humidity: 64%

Dew point: 52 °F

Location of BrønnøysundLocation

Historic Weather in Brønnøysund — Graph

°F

Brønnøysund temperature yesterday

Maximum temperature yesterday: 66 °F (at 11:50 AM)
Minimum temperature yesterday: 59 °F (at 5:50 AM)
Average temperature yesterday: 61 °F

Past Weeks' High & Low Weather Summary

 TemperatureHumidityPressure
High84 °F (Jul 21, 11:50 AM)100% (Jul 16, 6:50 AM)30.36 "Hg (Jul 16, 6:50 AM)
Low55 °F (Jul 16, 6:50 PM)42% (Jul 20, 11:20 AM)29.65 "Hg (Jul 14, 9:50 PM)
Average65 °F77%30.08 "Hg
* Reported Jul 14 11:20 AM — Jul 29 11:40 AM, Brønnøysund, Weather by CustomWeather, © 2014

Note: Actual official high and low records may vary slightly from our data, if they occured in-between our weather recording intervals... More about our weather records

Advertising

Brønnøysund weather history for previous 24 hours

 ConditionsComfort  
Time TempWeatherWind HumidityBarometerVisibility
11:40 AM
Jul 29
64 °FPassing clouds.7 mph64%29.89 "HgN/A
10:50 AM63 °FPassing clouds.8 mph73%29.89 "HgN/A
9:50 AM61 °FPassing clouds.8 mph77%29.92 "HgN/A
8:50 AM61 °FPassing clouds.7 mph77%29.92 "HgN/A
8:20 AM59 °FPassing clouds.6 mph77%29.92 "HgN/A
7:50 AM59 °FScattered clouds.6 mph82%29.92 "HgN/A
6:50 AM57 °FScattered clouds.7 mph82%29.92 "HgN/A
6:20 AM57 °FPartly sunny.8 mph82%29.92 "HgN/A
5:50 AM57 °FPartly sunny.8 mph82%29.92 "HgN/A
9:50 PM
Jul 28
59 °FScattered clouds.3 mph88%29.95 "HgN/A
8:50 PM61 °FPassing clouds.7 mph83%29.95 "HgN/A
7:50 PM61 °FPassing clouds.8 mph83%29.92 "HgN/A
6:50 PM63 °FPassing clouds.7 mph77%29.92 "HgN/A
5:50 PM63 °FScattered clouds.9 mph83%29.92 "HgN/A
4:50 PM63 °FScattered clouds.8 mph83%29.92 "HgN/A
3:50 PM63 °FPartly sunny.6 mph83%29.92 "HgN/A
2:50 PM63 °FBroken clouds.3 mph83%29.92 "HgN/A
1:50 PM63 °FBroken clouds.7 mph83%29.92 "HgN/A
Weather by CustomWeather, © 2014

See weather overviewHow to use our weather pages